Weather History for Alamosa, CO

Change the Weather History Date:

Saturday, July 13, 2013

  Actual Average Record
Temperature  
Mean Temperature 67 °F 65 °F  
Max Temperature 85 °F 83 °F 93 °F (1971)
Min Temperature 49 °F 47 °F 35 °F (1987)
Degree Days  
Heating Degree Days 0 1  
Month to date heating degree days 8 22  
Since 1 June heating degree days 110 190  
Since 1 July heating degree days 8 22  
Cooling Degree Days 2 1  
Month to date cooling degree days 22 13  
Year to date cooling degree days 38 19  
Since 1 June cooling degree days 38 19  
Growing Degree Days 17 (Base 50)    
Moisture  
Dew Point 49 °F    
Average Humidity 54    
Maximum Humidity 83    
Minimum Humidity 24    
Precipitation  
Precipitation 0.01 in 0.03 in 0.40 in (1976)
Month to date precipitation 0.17 0.36  
Year to date precipitation 1.78 3.07  
Snow  
Snow 0.00 in 0.00 in 0.00 in (2002)
Month to date snowfall 0.0 0.0  
Since 1 June snowfall 0.0 0.0  
Since 1 July snowfall 0.0 0.0  
Snow Depth 0.00 in    
Sea Level Pressure  
Sea Level Pressure 30.06 in    
Wind  
Wind Speed 7 mph (WNW)    
Max Wind Speed 24 mph    
Max Gust Speed 30 mph    
Visibility 10 miles    
Events Rain , Thunderstorm    
T = Trace of Precipitation, MM = Missing Value Source: NWS Daily Summary

Daily Weather History Graph

Daily Weather History Graph

Search for Another Location

Airport:

Trip Planner

Search our weather history database for the weather conditions in past years. The results will help you decide how hot, cold, wet, or windy it might be!

Date:

Astronomy

Jul. 13, 2013 Rise Set
Actual Time 5:53 AM MDT 8:24 PM MDT
Civil Twilight 5:22 AM MDT 8:55 PM MDT
Nautical Twilight 4:45 AM MDT 9:32 PM MDT
Astronomical Twilight 4:03 AM MDT 10:14 PM MDT
Moon 11:04 AM MDT (7/13) 11:15 PM MDT (7/13)
Length of Visible Light 15h 32m
Length of Day
14h 31m
Waxing Crescent, 26% of the Moon is Illuminated
Jul 13
Waxing Crescent
Jul 15
First Quarter
Jul 22
Full
Jul 29
Last Quarter
Aug 6
New

Hourly Weather History & Observations

Time (MDT) Temp. Dew Point Humidity Pressure Visibility Wind Dir Wind Speed Gust Speed Precip Events Conditions
12:52 AM 59.0 °F 48.9 °F 69% 29.98 in 10.0 mi Calm Calm - N/A   Clear
1:52 AM 55.9 °F 48.0 °F 75% 29.99 in 10.0 mi Calm Calm - N/A   Clear
2:52 AM 54.0 °F 48.9 °F 83% 30.00 in 10.0 mi SE 3.5 mph - N/A   Clear
3:52 AM 54.0 °F 48.0 °F 80% 30.01 in 10.0 mi SW 3.5 mph - N/A   Clear
4:52 AM 54.0 °F 48.0 °F 80% 30.03 in 10.0 mi Calm Calm - N/A   Clear
5:52 AM 50.0 °F 45.0 °F 83% 30.05 in 10.0 mi East 6.9 mph - N/A   Clear
6:52 AM 55.9 °F 48.9 °F 77% 30.05 in 10.0 mi Calm Calm - N/A   Clear
7:52 AM 64.0 °F 48.9 °F 58% 30.05 in 10.0 mi WSW 4.6 mph - N/A   Clear
8:52 AM 66.9 °F 50.0 °F 54% 30.05 in 10.0 mi SSW 4.6 mph - N/A   Clear
9:52 AM 72.0 °F 48.9 °F 44% 30.04 in 10.0 mi Variable 5.8 mph - N/A   Clear
10:52 AM 75.9 °F 48.9 °F 38% 30.03 in 10.0 mi ENE 4.6 mph - N/A   Clear
11:52 AM 80.1 °F 46.9 °F 31% 29.99 in 10.0 mi Variable 3.5 mph - N/A   Clear
12:52 PM 82.9 °F 46.9 °F 28% 29.96 in 10.0 mi South 10.4 mph 17.3 mph N/A   Clear
1:52 PM 84.9 °F 44.1 °F 24% 29.96 in 10.0 mi WSW 19.6 mph 26.5 mph N/A   Partly Cloudy
2:52 PM 79.0 °F 46.0 °F 31% 29.97 in 10.0 mi WSW 6.9 mph - N/A   Clear
3:52 PM 82.9 °F 42.1 °F 24% 29.95 in 10.0 mi NNW 3.5 mph - N/A   Clear
4:49 PM 80.6 °F 48.2 °F 32% 30.26 in 10.0 mi North 8.1 mph 17.3 mph N/A Thunderstorm Scattered Clouds
4:52 PM 81.0 °F 48.0 °F 31% 29.95 in 10.0 mi NW 11.5 mph 17.3 mph N/A Thunderstorm Mostly Cloudy
5:09 PM 78.8 °F 46.4 °F 32% 30.26 in 10.0 mi NW 9.2 mph - N/A   Overcast
5:38 PM 73.4 °F 48.2 °F 41% 30.28 in 10.0 mi West 13.8 mph - N/A Thunderstorm Thunderstorm
5:52 PM 71.1 °F 52.0 °F 51% 30.02 in 10.0 mi NW 15.0 mph - 0.00 in Rain , Thunderstorm Light Thunderstorms and Rain
5:59 PM 69.8 °F 53.6 °F 56% 30.27 in 10.0 mi NNW 10.4 mph - 0.00 in Rain , Thunderstorm Light Thunderstorms and Rain
6:24 PM 71.6 °F 53.6 °F 53% 30.27 in 10.0 mi NNW 8.1 mph - 0.00 in Rain Light Rain
6:52 PM 73.0 °F 50.0 °F 44% 29.99 in 10.0 mi NNW 3.5 mph - 0.00 in   Clear
7:26 PM 71.6 °F 51.8 °F 50% 30.28 in 10.0 mi WNW 3.5 mph - N/A Thunderstorm Scattered Clouds
7:45 PM 69.8 °F 51.8 °F 53% 30.29 in 10.0 mi WSW 3.5 mph - N/A   Overcast
7:52 PM 70.0 °F 53.1 °F 55% 30.00 in 10.0 mi SSW 4.6 mph - N/A   Overcast
8:52 PM 66.9 °F 52.0 °F 59% 30.02 in 10.0 mi WSW 11.5 mph - N/A   Mostly Cloudy
9:52 PM 64.9 °F 51.1 °F 61% 30.04 in 10.0 mi NW 15.0 mph 23.0 mph 0.00 in   Overcast
10:52 PM 60.1 °F 54.0 °F 80% 30.05 in 10.0 mi NW 13.8 mph - 0.00 in Rain Light Rain
11:52 PM 60.1 °F 53.1 °F 78% 30.04 in 10.0 mi North 9.2 mph - 0.01 in   Mostly Cloudy